Theta_e
305 300 297 300 301 300 298 297 296 299 302 301 300 301 304 307 307 307 309 310 311 312 315 317 318 320 323 326 330 333 335 354 356 353 352 352 350 352 352 355 358 356 355 353
300 296 302 302 301 299 298 296 297 300 302 301 300 300 304 306 307 308 308 309 310 312 313 315 317 319 321 324 329 334 335 342 353 352 356 354 353 351 351 351 357 356 356 356
298 300 301 301 299 297 298 296 297 297 300 302 300 299 302 306 307 308 309 311 311 312 312 314 316 317 319 321 324 327 334 339 346 353 352 354 354 351 348 348 350 354 355 356
299 303 300 298 297 299 295 301 299 297 297 293 301 291 300 303 304 306 308 310 310 311 313 314 315 317 319 319 321 323 332 336 338 350 346 352 346 343 347 349 349 351 354 352
297 298 298 297 298 301 298 301 299 299 297 297 297 294 299 303 301 305 307 307 309 311 312 312 314 316 318 320 320 323 329 332 337 343 352 347 350 345 348 348 355 355 355 354
301 304 301 301 302 301 302 300 300 300 298 291 296 295 296 300 301 304 306 307 307 310 311 312 315 317 317 320 321 323 325 330 334 337 346 353 353 353 346 349 348 348 349 350
299 300 303 303 299 302 301 298 291 290 291 290 299 295 297 302 304 304 303 305 308 310 310 311 313 314 317 319 321 323 324 324 330 334 338 346 354 358 356 354 349 350 347 347
294 292 300 302 300 299 300 299 292 285 288 291 297 292 297 303 306 306 305 307 308 309 310 310 312 315 316 318 320 322 324 325 326 330 335 341 348 348 349 353 349 348 348 357
293 293 300 301 303 302 298 295 301 294 295 291 294 298 302 303 302 302 303 305 306 308 309 310 312 315 316 318 320 321 324 326 326 328 333 338 345 349 349 355 354 350 357 350
298 292 300 300 302 302 299 302 294 294 285 284 291 292 293 298 299 300 301 303 306 307 308 310 312 314 316 318 320 322 325 325 326 327 332 336 343 346 347 348 348 347 347 345
299 296 296 298 296 295 297 295 296 296 293 286 285 290 299 297 300 300 302 304 305 306 307 309 311 314 316 318 319 320 324 324 325 328 331 333 334 334 335 334 334 336 338 337
299 296 291 294 300 300 298 296 296 291 289 292 290 290 302 300 301 301 302 304 305 308 309 310 311 314 315 316 317 319 320 322 323 325 329 328 328 329 332 332 332 334 334 335
299 294 289 291 296 298 294 297 297 296 295 290 287 290 301 301 301 303 303 304 305 308 309 310 310 310 313 314 315 316 319 319 319 319 323 323 327 327 331 332 334 334 332 332
300 295 291 288 291 294 291 294 295 294 291 291 291 293 296 299 300 302 303 305 306 308 308 308 308 309 311 312 313 314 315 320 318 318 319 320 321 325 328 331 332 333 333 332
297 290 293 294 294 294 292 292 293 292 293 290 292 293 296 299 300 301 304 305 306 307 307 307 308 308 310 311 312 313 313 315 319 316 315 318 321 321 324 328 330 331 332 330
297 290 292 289 293 292 289 291 292 293 293 293 293 293 300 302 302 303 304 305 305 306 306 306 307 307 308 310 311 312 313 313 315 315 313 316 318 319 320 321 326 329 330 332
292 291 289 286 290 289 285 290 292 292 294 293 289 295 300 300 300 302 304 305 304 304 305 306 306 307 308 309 310 309 311 313 313 313 311 312 315 316 317 319 320 325 328 329
292 291 290 286 288 279 291 296 297 296 297 298 298 299 301 300 302 302 303 302 302 304 305 306 306 307 308 309 309 310 310 310 311 312 311 311 311 312 314 315 319 323 327 328
297 292 287 284 284 289 292 295 295 294 294 299 299 300 300 301 301 300 302 303 303 303 303 304 305 307 307 308 309 309 308 309 308 308 310 311 311 311 312 310 315 320 322 325
295 293 289 287 281 280 292 297 300 300 290 300 299 299 298 298 291 295 300 300 300 301 302 302 302 304 305 305 307 306 306 307 307 307 309 311 309 310 311 312 314 320 321 322
288 288 285 285 285 289 297 298 300 286 290 300 300 299 297 293 296 298 298 298 299 300 299 301 300 301 302 304 305 304 304 304 307 308 308 310 311 312 312 315 315 314 318 320
289 287 286 288 284 283 299 298 290 297 301 299 298 298 295 296 295 295 296 296 296 296 297 298 297 298 301 302 303 301 300 305 307 306 307 309 310 309 310 312 313 314 316 316
288 293 291 291 293 300 302 299 302 301 297 298 296 298 297 294 295 296 295 294 294 294 295 297 297 299 298 298 300 299 301 304 304 304 305 307 308 309 309 310 311 311 313 312
295 298 294 293 296 297 300 302 301 300 297 298 298 296 296 295 295 293 293 292 292 293 293 294 294 293 296 298 297 300 301 302 302 301 303 304 305 306 308 308 309 309 310 311
294 296 294 294 297 298 299 300 300 299 299 297 298 297 296 294 292 292 291 291 290 291 291 292 292 292 293 295 297 297 299 301 298 301 302 302 303 303 305 307 308 308 311 309
296 294 293 291 297 296 297 299 299 296 296 297 296 295 295 293 291 291 289 290 289 288 289 290 291 291 292 294 293 295 298 298 298 299 300 301 301 301 302 303 305 298 297 295
Wind_Speed
12 11 13 14 11 10 7 8 11 9 8 12 14 15 13 13 14 15 14 12 12 13 13 12 12 12 12 14 12 12 11 13 12 12 13 14 15 14 14 12 16 18 16 18
8 15 14 8 8 10 11 13 13 11 11 10 15 18 15 15 16 15 12 13 13 12 14 14 16 16 14 14 14 15 14 14 14 13 11 13 13 14 14 13 14 16 17 18
17 1 4 13 12 14 14 14 12 13 13 13 18 20 20 15 13 11 13 11 12 12 12 14 16 17 17 15 15 14 15 15 15 18 12 12 12 11 13 14 13 15 18 19
12 16 13 9 12 13 14 12 12 12 13 13 3 14 17 13 9 9 12 12 8 12 13 14 16 17 18 17 17 17 14 15 15 17 16 18 16 16 16 14 14 14 20 19
4 7 12 15 16 12 13 5 11 13 16 18 18 14 14 7 14 13 8 7 10 10 11 14 14 16 18 17 16 16 14 15 16 16 18 16 19 16 13 13 15 16 16 19
17 3 6 10 5 8 10 11 16 16 13 17 20 19 13 8 3 12 12 12 9 11 15 16 16 16 15 16 17 16 15 15 15 16 19 21 20 19 15 15 13 12 14 15
17 18 17 11 14 14 12 14 13 16 15 15 13 9 12 13 10 12 13 15 11 13 14 16 17 17 13 15 17 16 16 17 15 16 18 21 22 19 20 14 13 12 13 13
13 12 14 6 14 16 17 15 13 17 15 14 11 12 8 2 10 10 8 6 8 12 15 17 19 19 18 15 17 18 18 18 17 16 18 18 20 16 16 16 13 13 11 10
10 13 4 3 6 8 9 12 12 18 18 18 16 21 18 11 7 8 5 7 11 13 15 18 18 17 18 17 17 18 18 18 16 16 14 17 17 17 16 16 12 10 10 9
9 13 13 4 5 6 10 8 9 8 9 17 10 13 13 7 6 5 11 15 11 14 17 16 16 17 16 13 14 13 15 17 14 14 12 13 9 11 12 10 13 13 10 7
12 13 15 7 12 15 9 11 11 12 11 10 16 8 7 2 13 14 14 11 17 18 18 16 15 15 15 11 13 13 12 12 10 7 7 10 11 13 12 12 11 11 14 10
11 8 11 16 12 7 12 17 15 9 10 10 13 15 17 7 8 5 13 16 17 15 14 13 13 13 13 12 12 12 11 10 8 9 4 5 7 9 7 6 11 10 10 13
6 8 10 9 12 7 14 15 15 18 17 20 19 12 8 6 12 17 20 18 15 11 13 12 11 12 11 11 11 12 11 6 9 10 2 2 1 3 9 8 8 8 11 9
6 13 13 12 12 9 11 13 16 17 14 19 21 28 22 22 19 19 19 18 14 10 12 12 12 12 10 9 10 10 11 9 8 8 11 11 6 3 5 6 6 9 9 11
5 10 15 17 20 19 20 21 21 23 23 25 23 27 24 22 21 19 18 15 14 14 14 14 13 12 13 11 10 10 9 10 8 6 10 11 10 5 4 9 9 7 10 12
7 7 13 17 14 15 20 22 22 23 23 26 27 28 24 22 14 16 15 17 18 17 15 17 17 16 15 14 11 12 12 9 8 4 5 13 10 11 7 3 10 9 10 11
6 6 6 10 11 11 15 18 17 17 20 22 23 22 16 18 18 18 20 20 20 21 22 21 18 17 16 15 14 15 14 13 10 8 5 9 10 9 9 7 10 14 12 10
9 9 9 12 11 13 1 2 6 10 15 14 15 16 16 17 17 16 21 25 26 26 27 20 17 19 19 18 18 16 15 14 15 13 10 8 8 8 10 8 12 12 8 12
21 13 5 6 7 15 16 4 5 10 18 18 14 12 16 21 24 23 22 23 24 25 22 20 21 22 21 21 19 18 17 17 16 16 15 12 11 10 12 8 7 9 9 13
5 9 7 4 5 5 4 3 5 11 15 9 12 19 24 22 19 20 21 24 28 29 26 25 26 24 22 19 18 19 19 19 18 17 16 14 11 10 13 13 11 9 11 8
5 4 10 10 6 8 7 4 7 7 6 21 21 23 25 22 21 27 23 24 27 25 26 25 24 23 21 20 19 18 16 18 18 16 15 15 13 13 13 10 11 7 8 9
4 6 6 6 5 7 4 9 8 14 18 18 23 24 23 24 24 24 27 27 25 25 25 24 21 21 22 22 22 21 18 18 18 17 16 16 14 12 12 14 12 13 15 13
4 3 2 4 3 6 8 10 14 12 19 22 23 24 26 25 26 31 27 26 22 23 20 18 19 24 22 18 18 21 18 17 18 17 15 16 15 15 14 14 14 12 14 13
3 4 5 6 3 10 12 14 11 18 19 21 23 22 22 27 29 28 25 23 20 20 19 17 17 18 21 20 17 17 15 16 18 15 17 14 15 15 16 13 13 14 13 14
5 4 7 10 9 15 6 15 20 22 22 23 22 24 25 26 26 26 25 23 20 21 20 18 17 16 17 15 15 16 17 16 15 15 16 15 14 14 16 15 14 14 15 14
2 5 3 5 13 11 18 21 22 20 21 21 26 28 24 23 25 26 23 21 19 19 18 16 16 17 17 16 15 13 16 16 14 14 11 13 12 9 9 11 13 13 9 2
Wind_Direction
205 228 221 225 229 285 270 264 259 256 266 267 265 270 273 270 272 274 272 269 268 270 279 276 280 284 286 292 285 272 255 235 216 214 212 217 221 219 215 221 211 206 202 201
192 232 248 247 243 236 239 253 253 263 260 272 270 269 269 265 269 269 276 278 278 295 303 314 316 312 298 289 288 294 273 253 228 222 215 221 219 219 221 216 209 209 206 205
237 127 310 213 216 232 237 251 267 275 290 275 264 266 255 236 227 261 264 270 283 298 317 310 304 301 297 287 280 279 281 276 251 239 225 224 228 225 215 219 211 210 208 208
250 246 220 222 239 227 250 233 250 270 271 276 146 288 287 264 266 242 253 264 312 311 315 317 317 314 306 291 288 284 268 267 255 246 235 228 222 217 219 211 213 210 210 214
204 219 222 233 240 224 257 292 265 278 276 281 267 262 267 245 222 258 267 279 297 313 313 315 320 319 312 302 286 277 270 265 262 255 228 226 226 229 225 215 211 208 205 211
269 141 272 259 273 233 270 268 257 256 263 259 263 253 267 258 306 292 306 311 299 309 309 313 320 316 318 316 310 301 280 264 260 252 243 227 230 226 226 212 207 201 208 199
238 238 236 235 258 229 240 258 266 261 247 254 259 258 271 294 286 294 313 305 314 311 320 326 322 319 320 328 323 313 292 272 260 249 243 235 229 227 226 213 210 208 204 199
279 257 219 228 239 269 270 251 259 273 271 285 296 259 263 110 287 291 313 292 301 325 331 327 327 326 314 316 323 316 312 288 264 253 244 240 231 225 220 211 218 211 209 199
266 245 133 267 271 262 259 240 285 285 281 270 268 259 250 213 258 263 239 273 297 313 314 318 322 325 319 311 317 316 311 300 280 261 245 243 231 230 228 216 199 213 213 190
283 282 258 160 226 214 259 343 243 231 272 270 257 287 280 243 268 277 298 297 299 302 309 313 313 321 320 312 318 317 318 308 294 265 243 236 218 224 219 195 185 184 174 181
255 257 263 201 229 255 207 229 235 288 263 274 286 270 95 297 280 292 291 288 301 315 312 312 316 320 315 302 326 345 331 328 315 292 243 228 187 186 183 181 180 171 166 175
299 296 266 264 273 241 258 278 269 236 258 236 256 264 277 317 313 299 276 287 311 311 301 305 315 319 328 324 325 322 0 5 1 338 290 184 182 173 166 180 165 164 159 178
215 229 254 244 229 238 255 258 246 263 266 263 268 263 268 266 235 268 299 300 300 302 294 300 304 312 319 330 332 337 324 24 40 355 326 357 260 252 149 181 169 153 175 168
310 263 256 271 285 302 281 279 273 257 253 266 263 280 282 283 291 303 309 305 298 290 290 295 304 303 307 313 326 333 337 331 309 356 12 6 347 253 207 160 185 181 164 178
275 251 258 267 276 274 274 271 261 259 259 259 276 281 288 298 301 309 312 300 295 283 290 298 300 302 301 301 307 312 326 335 334 328 332 336 342 351 277 239 165 214 189 196
231 260 262 272 271 270 276 272 266 261 266 270 276 276 280 286 305 295 292 291 290 294 297 295 298 295 299 297 296 301 300 310 327 346 276 296 323 343 350 314 298 243 205 208
233 251 258 265 283 295 271 263 262 261 265 269 273 286 312 303 303 305 307 310 303 295 295 292 290 289 288 288 292 287 282 287 280 266 225 234 262 290 316 327 257 234 230 218
253 249 266 274 285 268 72 292 304 292 290 285 284 285 295 315 325 315 300 300 294 292 287 284 292 294 291 288 284 282 274 266 269 261 247 245 211 235 285 291 303 264 240 223
221 241 250 239 252 287 291 75 352 337 300 296 307 329 320 308 308 296 299 304 307 310 308 304 302 296 286 283 278 270 267 262 255 259 252 232 220 206 206 235 278 280 246 232
201 228 230 213 246 272 58 86 336 315 282 55 328 313 316 316 298 296 317 316 303 298 294 292 288 290 285 275 272 269 263 256 252 249 251 241 230 217 201 209 212 232 224 229
129 160 221 229 255 269 46 355 306 266 337 327 324 316 310 309 300 309 304 291 286 288 287 287 285 278 276 280 270 262 256 253 252 251 252 244 233 225 231 213 189 207 267 238
207 191 194 214 246 261 34 317 304 327 315 314 314 314 312 298 296 292 290 288 286 286 281 278 278 282 276 270 268 260 249 243 248 249 240 237 230 230 229 225 222 206 215 220
250 306 295 256 283 322 310 305 306 319 311 320 315 313 308 296 291 296 301 301 295 289 284 276 276 273 280 259 262 273 252 239 233 244 248 239 235 232 228 236 222 220 218 225
195 218 249 295 237 321 331 305 323 328 316 315 312 302 298 299 302 302 300 301 298 296 294 291 285 278 276 273 269 264 243 257 254 228 240 238 237 236 234 229 222 227 223 216
317 276 308 289 290 338 307 323 326 322 320 309 307 310 306 305 306 304 305 307 304 298 296 290 282 277 273 271 260 256 243 251 241 233 223 228 232 231 232 224 225 225 224 230
267 307 302 301 333 315 306 319 314 315 308 316 316 311 309 310 307 308 306 305 303 299 297 293 284 283 274 266 257 241 246 225 237 228 223 219 228 224 216 229 230 235 264 282